Location: Allentsteig
(48.6833°N, 15.3167°E)
Time: 01:39:50
(UTC+00:00)

Cosmos 1975 Rocket - Pass Details

Date: 18 September 2020
Orbit: 603 x 634 km, 82.5° (Epoch: 29 October)

Event Time Altitude Azimuth Distance (km) Brightness Sun altitude
Rises 17:27:37 0° 355° (N) 2,885 6.7 -4.6°
Reaches altitude 10° 17:29:56 10° 1° (N) 1,972 5.7 -5.0°
Maximum altitude 17:34:08 46° 75° (ENE) 823 3.3 -5.7°
Drops below altitude 10° 17:38:17 10° 150° (SSE) 1,947 5.2 -6.4°
Sets 17:40:33 0° 156° (SSE) 2,845 6.1 -6.8°
